Regional Weather Roundup
Issued by NWS Charleston, SC

Current Version | Previous Version | Graphics & Text | Print | Product List | Glossary On
Versions: 1 2 3 4 5 6 7 8 9 10 11 12 13 14 15 16 17 18 19 20 21 22 23 24 25 26 27 28 29 30 31 32 33 34 35 36 37 38 39 40 41 42 43 44 45 46 47 48 49 50
000
ASUS42 KCHS 271312
RWRCHS

REGIONAL WEATHER ROUNDUP
NATIONAL WEATHER SERVICE CHARLESTON SC
900 AM EDT THU APR 27 2017

NOTE: "FAIR" INDICATES FEW OR NO CLOUDS BELOW 12,000 FEET WITH NO
SIGNIFICANT WEATHER AND/OR OBSTRUCTIONS TO VISIBILITY.

NOT ALL STATIONS ARE QUALITY CONTROLLED. USE DATA WITH CAUTION...
ESPECIALLY DEWPOINT OBSERVATIONS.

SCZ027-030-031-034>040-042>050-271400-
...SOUTHEAST SOUTH CAROLINA...

CITY           SKY/WX    TMP DP  RH WIND       PRES   REMARKS
N CHARLESTON   MOSUNNY   73  67  81 SW7       29.95R
WATERFRONT PRK   N/A     73  69  87 SW7       29.93R
JOHNS ISLAND   FAIR      75  68  78 SW10      29.95R
PINOPOLIS        N/A     70  66  88 SW6       29.86R
MONCKS CORNER  FAIR      70  63  78 SW5       29.94S
SUMMERVILLE    FAIR      70  64  83 S5        29.96R
BEAUFORT MCAS  PTSUNNY   75  65  70 S6        29.94R
BEAUFORT ARPT  FAIR      73  61  64 S8        29.94R HAZE
HILTON HEAD IS NOT AVBL
WALTERBORO     MOSUNNY   70  63  78 SW5       29.95R
ALLENDALE      FAIR      68  61  77 VRB3      29.93R

...SOUTHERN MIDLANDS AND PEE DEE...

CITY           SKY/WX    TMP DP  RH WIND       PRES   REMARKS
GEORGETOWN     FAIR      72  68  88 SW13      29.97R
KINGSTREE      FAIR      68  63  83 S6        29.95R
ORANGEBURG     SUNNY     67  61  81 SW7       29.93R
BARNWELL       PTSUNNY   68  63  83 CALM      29.92F
AIKEN          PTSUNNY   64  61  88 S5        29.94F
MANNING        FAIR      70  61  73 SW10      29.94S
COLUMBIA       MOSUNNY   70  59  68 SW8       29.91R
SUMTER         SUNNY     69  60  72 SW6       29.90S
FLORENCE       SUNNY     69  64  84 SW7       29.94R
MYRTLE BEACH   MOSUNNY   73  66  78 SW12      29.95R
N MYRTLE BEACH SUNNY     74  67  78 SW16      29.95R

$$

GAZ063-065-086>088-099>101-113>116-118-119-134>141-150-271400-
...SOUTHEAST GEORGIA...

CITY           SKY/WX    TMP DP  RH WIND       PRES   REMARKS
SAVANNAH ARPT  MOSUNNY   71  62  73 S9        29.94R
HUNTER AAF     SUNNY     74  69  84 S3        29.92R
FORT STEWART   MOSUNNY   69  61  75 S6        29.91S
STATESBORO     CLOUDY    68  63  84 SE3       29.92S
SYLVANIA       CLOUDY   N/A N/A N/A SW3       29.94R
CLAXTON        CLOUDY   N/A N/A N/A CALM      29.93S

...CSRA...CENTRAL AND FAR SOUTHEAST GEORGIA...

CITY           SKY/WX    TMP DP  RH WIND       PRES   REMARKS
THOMSON        CLOUDY    64  60  85 SW7       29.92F
AUGUSTA-BUSH   CLOUDY    65  61  87 SE7       29.89F
AUGUSTA-DANIEL CLOUDY    65  57  75 SE6       29.91S
SWAINSBORO     CLOUDY    64  61  88 SE6       29.92S
VIDALIA        CLOUDY    68  61  77 S6        29.92S
EASTMAN        CLOUDY    69  58  68 SE6       29.92S
HAZLEHURST     CLOUDY    69  65  85 S6        29.91S
ALMA           CLOUDY    69  60  73 S6        29.92S HAZE
WAYCROSS       CLOUDY    73  63  71 S7        29.92S
JESUP          FAIR      72  61  68 S6        29.94R
BAXLEY         CLOUDY    70  64  83 S6        29.92S FOG
BRUNSWICK      MOSUNNY   77  64  65 S8        29.95R
SAINT SIMONS   PTSUNNY   75  65  70 S5        29.94R

$$

SCZ027-028-034-036>038-045-046-048>050-GAZ119-141-271400-
...LAKE AND SUPPLEMENTAL COASTAL OBSERVATIONS...

STATION/POSITION TIME  TEMP    WIND        PRES    WAVE   SWELL
                       AIR SEA DIR/SP/G            HT/PER HT/PER/DIR
                 (UTC) (F)     (DEG/KT/KT) (MB)    (FT/S) (FT/S/D)
WINYAH BAY       1145   70     210/  6     1013.0
LAKE MURRAY      1220   66     210/  9/ 11 1012.2
ACE BASIN NERRS  1145   67        CALM     1013.0
FORT PULASKI     1242   74 74  210/  8/ 13 1014.0R
SAPELO ISLAND    1200   72     170/  7     1013.0

$$

ANZ835-935-AMZ111-154-330-350-352-354-370-450-454-472-271400-
...C-MAN AND BUOY OBSERVATIONS...

STATION/POSITION TIME  TEMP    WIND        PRES    WAVE   SWELL
                       AIR SEA DIR/SP/G            HT/PER HT/PER/DIR
                 (UTC) (F)     (DEG/KT/KT) (MB)    (FT/S) (FT/S/D)
BUOY 41004       1250   73 73  240/ 10/ 12 1014.3R   4/ 8   3/130/ 8
BUOY 41008       1150   73 72  170/ 12/ 14 1012.7    4/ 9   2/ 90/ 9
FOLLY BEACH CMAN 1200   72     210/ 13/ 15 1013.9R
CAPERS NEARSHORE 1208   74 72  220/ 12/ 16 1013.1R
FRIPP NEARSHORE  1208   72 71  210/  8/ 12 1013.2R


STATION/POSITION TIME  TEMP    WIND        PRES    WAVE   SWELL
                       AIR SEA DIR/SP/G            HT/PER HT/PER/DIR
                 (UTC) (F)     (DEG/KT/KT) (MB)    (FT/S) (FT/S/D)
5E ST. MARYS GA  1230      73                N/A     3/ 8
FRYING PAN BUOY  1250   74 73  210/ 10/ 12 1014.0R   4/ 9   3/120/ 9
BUOY 41025       1250   76 77  220/ 14/ 16 1014.2R   5/ 9   3/120/ 9
CAPE LOOKOUT NC  1200   70     180/  3/  3 1013.6R
BUOY 41002       1150   74 74  180/ 14/ 16 1016.3    5/ 9   3/ 90/ 9
BUOY 41010       1250   77 78  160/ 16/ 19 1014.8R   5/ 8   3/110/ 8
ST AUGUSTINE FL  1200   69 74  200/  8/  9 1014.5R


$$



USA.gov is the U.S. government's official web portal to all federal, state and local government web resources and services.